Location: La Coruña
(43.3623°N, 8.4115°W)
Time: 04:56:16
(UTC+01:00)

STARLINK-1098 - Pass Details

Date: 24 January 2020
Orbit: 548 x 551 km, 53.0° (Epoch: 28 February)

Event Time Altitude Azimuth Distance (km) Brightness Sun altitude
Rises 19:32:24 0° 293° (WNW) 2,722 8.0 -10.7°
Reaches altitude 10° 19:35:04 10° 310° (NW) 1,828 6.8 -11.2°
Maximum altitude 19:38:17 21° 1° (N) 1,263 5.3 -11.7°
Enters shadow 19:40:39 14° 42° (NE) 1,595 5.5 -12.2°
